User: anonymous   Login
Location: Newark
(42.9277°N, 71.8621°W)
Time: 22:15:42
(UTC+00:00)
Language:

ISS - Orbit

View from above orbital plane
View from above orbital plane
View from above satellite
View from above satellite

Ground track
Ground track

The orbit data is extracted from the following two-line orbital elements,

1 25544U 98067A   21260.50294071  .00002092  00000-0  47035-4 0  9995
2 25544  51.6440 246.2620 0003238  25.5174  69.1164 15.48403361302900
Epoch (UTC): 17 September 2021 12:04:14
Eccentricity: 0.0003238
inclination: 51.6440°
perigee height: 419 km
apogee height: 423 km
right ascension of ascending node: 246.2620°
argument of perigee: 25.5174°
revolutions per day: 15.48403361
mean anomaly at epoch: 69.1164°
orbit number at epoch: 30290

The dashed part of the orbit path shows where the satellite is in the earth's shadow,  

DLR